SCP
1 1 1 1 1 1 0 0 0 0 0 1 2 2 2 1 1 1 1 1 1 1 1 1 1 1 0 0 0 0 0 0 1 1 1 1 1 1 0 0 0 0 0
1 1 2 2 1 1 1 0 0 0 0 1 1 2 2 1 1 1 1 1 1 1 1 1 1 1 1 0 0 0 0 0 0 0 0 0 0 0 0 0 0 0 0
1 1 2 2 2 1 1 1 1 1 0 1 1 1 1 1 1 1 1 1 1 1 1 1 1 1 1 1 1 0 0 0 0 0 0 0 0 0 0 0 0 0 0
1 1 1 2 2 1 1 1 1 1 1 1 1 1 1 1 1 1 1 1 1 1 1 1 1 1 1 1 1 0 0 0 0 0 0 0 0 0 0 0 0 0 0
1 1 1 1 1 1 1 1 1 1 1 1 1 1 1 1 1 1 1 1 1 1 1 1 1 1 1 1 1 1 0 0 0 0 0 0 0 0 0 0 0 0 0
2 2 1 1 1 1 1 1 1 1 1 1 1 1 1 1 1 1 1 1 1 1 1 1 1 1 1 1 1 1 0 0 0 0 0 1 1 1 1 0 0 0 0
2 2 2 1 1 1 1 1 1 1 1 1 1 1 1 1 1 1 1 1 1 1 1 1 1 1 1 1 1 1 0 0 0 0 1 1 1 1 1 1 0 0 0
2 2 2 1 1 1 1 1 1 1 1 2 2 2 2 1 1 2 2 2 1 1 1 1 1 1 1 1 1 1 0 0 0 0 1 1 1 1 1 1 1 1 0
2 2 2 1 1 1 1 1 2 2 2 2 2 2 2 1 1 1 2 2 1 1 1 1 1 1 1 1 1 1 0 0 0 0 1 1 1 1 1 1 1 1 1
3 3 2 2 2 1 1 1 2 2 2 2 2 2 2 1 1 1 1 1 1 1 1 1 1 1 1 1 1 1 0 0 0 1 1 1 1 1 1 1 1 1 1
5 4 3 2 2 2 2 2 2 2 2 2 2 2 2 2 1 1 1 2 2 1 1 1 1 1 1 1 1 1 1 0 0 1 1 1 1 1 1 1 1 1 1
5 5 3 3 2 2 2 2 2 2 2 2 2 2 2 2 2 1 2 2 2 2 2 1 1 1 1 1 1 1 1 0 1 1 1 2 2 1 1 1 1 1 1
5 4 4 3 3 4 4 3 3 3 2 2 2 2 2 2 2 2 2 2 2 2 2 2 1 1 1 1 1 1 1 1 1 1 1 2 2 2 1 1 1 1 1
4 4 4 4 5 5 5 4 4 4 3 3 2 2 3 2 2 2 3 3 3 2 2 2 1 1 1 1 1 1 1 1 1 1 2 2 2 2 2 2 1 1 1
6 5 5 5 6 6 6 5 4 4 3 3 3 3 3 3 3 3 3 3 3 3 2 2 2 1 1 1 1 1 1 1 1 2 2 2 2 2 2 2 2 2 2
9 8 7 6 6 6 6 5 5 4 4 4 4 4 4 4 4 3 3 3 3 3 3 3 2 2 2 2 1 1 2 2 2 2 2 2 2 2 2 2 2 2 2
9 8 7 6 6 6 6 6 5 5 4 4 4 5 5 5 5 4 4 4 4 4 4 3 3 3 2 2 2 2 2 2 2 2 2 2 2 2 2 2 2 2 2
6 6 5 5 5 5 5 5 5 5 4 4 4 5 5 5 5 5 5 5 5 5 5 4 3 3 3 2 2 2 2 2 2 2 2 2 2 2 2 2 2 2 2
5 4 4 5 5 5 4 4 5 5 4 4 4 4 5 4 4 5 5 6 6 6 5 5 4 4 3 3 2 2 2 2 2 2 2 2 2 3 3 3 2 2 2
4 4 4 5 5 5 4 4 4 4 4 5 5 5 5 5 4 4 5 6 6 6 6 5 5 4 4 3 3 2 2 3 3 2 2 2 2 3 3 3 3 2 2
4 3 4 4 5 5 5 4 4 4 4 5 5 6 6 6 5 4 4 5 5 5 5 5 5 4 4 4 3 2 2 3 3 2 2 2 3 3 3 3 3 2 1
3 3 3 4 4 5 5 6 6 5 5 5 5 6 6 6 5 4 4 5 5 4 4 4 4 4 3 3 2 2 2 2 2 2 3 3 2 3 3 2 2 1 1
3 3 3 4 4 4 5 6 7 7 7 7 7 7 7 6 5 5 5 5 5 4 4 4 3 3 2 2 2 2 2 2 2 2 2 2 2 2 2 2 1 1 1
4 4 4 5 5 5 5 5 7 8 9 9 9 8 8 7 6 5 5 5 4 4 3 3 3 2 2 2 2 2 2 1 1 1 1 1 1 2 1 1 1 1 1
5 5 6 6 6 6 5 5 6 7 9 10 9 9 8 7 6 5 4 4 4 3 3 3 3 2 2 2 1 2 2 1 1 1 1 1 1 1 1 1 1 2 2
5 6 7 7 7 6 5 5 5 6 8 9 9 8 8 7 7 6 5 4 4 3 3 3 2 2 2 1 1 1 2 1 1 1 1 1 1 1 1 1 2 2 2
Wind_Speed
16 17 17 15 14 13 13 13 13 13 12 12 12 11 11 11 11 11 12 12 11 10 10 9 9 8 8 9 10 11 12 12 13 14 15 14 13 11 10 9 11 13 14
19 17 17 15 14 13 13 13 13 12 12 12 11 11 11 10 10 10 10 10 9 9 9 9 9 9 9 9 9 10 10 10 11 12 13 12 12 11 10 10 11 11 13
19 17 16 15 14 13 13 12 12 13 12 12 12 11 10 10 9 9 9 9 8 9 9 9 9 9 9 9 9 9 8 8 9 10 11 9 9 11 12 14 16 14 13
18 15 15 15 14 14 13 13 12 13 13 12 12 11 10 10 9 9 9 8 8 8 8 8 8 9 9 8 8 8 7 7 7 8 5 6 8 11 11 12 13 12 11
16 15 15 15 14 14 13 13 13 13 13 13 12 11 10 10 9 9 8 8 7 7 7 8 8 8 8 8 7 7 6 6 6 7 3 6 8 11 11 11 11 10 10
16 16 15 15 14 14 13 13 13 13 13 12 12 11 10 9 9 9 8 8 7 7 7 7 7 7 7 7 7 6 6 6 6 7 3 8 9 11 11 10 10 9 9
16 16 15 15 14 13 13 12 12 12 12 12 11 11 10 9 8 8 8 7 7 7 6 7 7 7 6 6 6 6 6 6 7 5 2 8 11 13 11 10 9 9 8
17 16 14 15 14 13 13 12 11 11 11 10 10 10 9 9 8 8 8 7 7 7 6 6 6 6 6 6 6 5 6 8 7 3 4 8 14 13 12 10 9 8 8
16 15 13 13 12 12 12 11 11 10 10 9 9 9 9 9 8 8 8 7 7 7 7 6 6 6 6 5 5 6 7 8 8 4 5 8 13 14 12 10 9 8 7
14 13 12 12 11 10 10 11 11 10 10 10 9 9 9 9 8 9 8 8 8 7 7 7 7 7 6 6 6 6 7 7 8 4 4 9 14 14 13 11 9 8 8
12 10 10 11 9 9 10 11 11 10 9 9 8 9 9 7 8 8 9 10 9 8 8 8 8 7 7 8 8 8 7 5 7 1 4 13 14 14 13 11 10 9 8
9 8 8 9 7 6 7 8 6 7 7 6 6 7 6 5 4 6 8 11 10 8 8 9 9 8 8 6 9 9 5 7 5 2 6 16 14 14 13 12 11 10 9
6 4 7 8 6 5 5 5 3 3 4 5 5 6 4 3 3 3 4 6 6 7 6 6 7 6 6 5 4 6 6 6 2 2 8 15 14 14 14 13 12 10 9
6 4 5 7 5 5 5 3 2 2 3 2 3 4 3 1 1 2 2 4 4 4 4 5 4 6 6 5 4 5 5 3 0 2 7 14 14 14 14 14 13 11 10
6 4 5 6 5 4 4 2 2 2 2 1 1 1 1 0 1 1 1 2 3 3 4 4 5 5 5 5 4 4 3 2 1 2 4 11 13 13 13 14 13 12 11
6 4 5 5 5 4 3 2 2 2 2 2 2 1 0 0 0 2 1 1 2 2 2 3 4 4 4 3 3 3 2 2 0 2 4 7 9 10 11 13 13 12 12
5 4 5 5 6 5 4 3 2 2 2 2 2 2 1 1 0 1 1 1 2 2 2 2 4 3 3 3 3 2 2 2 1 1 3 3 4 6 9 10 11 12 12
6 5 5 5 6 5 4 3 3 3 3 2 1 1 1 1 1 1 1 2 2 2 2 3 3 2 2 2 2 1 1 1 2 1 2 3 3 4 6 9 10 11 12
6 6 6 7 6 5 4 3 2 2 2 2 2 2 2 2 2 1 1 2 2 1 2 3 2 2 3 3 2 2 2 2 2 2 1 2 3 4 4 7 10 10 11
7 7 7 7 7 5 3 2 2 2 2 2 2 2 2 1 2 2 1 2 2 1 1 1 2 3 3 3 2 2 1 1 1 1 1 1 3 3 3 4 4 6 9
8 8 8 8 6 5 3 3 2 2 2 2 2 3 3 3 3 2 2 2 1 1 1 1 2 3 3 2 2 1 1 0 0 0 0 1 2 3 3 4 4 3 4
8 8 8 8 8 6 4 3 2 2 1 2 2 3 3 4 4 3 3 2 2 1 2 1 2 2 2 2 2 2 2 1 0 0 0 1 2 2 3 3 5 5 4
9 8 8 8 8 7 6 3 3 1 1 2 3 3 4 4 3 4 4 3 3 2 2 2 2 3 3 3 2 2 3 3 2 1 1 1 2 3 3 3 4 5 6
8 8 8 8 8 7 6 5 5 3 3 3 3 3 4 4 4 4 4 4 3 3 2 2 1 2 3 3 2 2 2 1 3 2 1 2 3 4 4 4 4 5 6
8 7 7 8 8 7 7 7 5 4 3 3 3 4 4 4 4 5 5 4 4 3 3 3 3 2 2 2 2 2 2 1 2 2 3 2 3 3 3 4 4 5 6
8 8 8 8 8 7 7 7 6 6 5 5 5 4 3 3 4 6 6 5 4 3 3 3 2 2 1 2 1 1 1 2 2 2 3 3 3 3 4 4 4 4 5
Wind_Direction
120 124 128 127 128 131 135 137 135 131 128 123 118 112 107 103 100 100 101 104 107 110 113 112 109 105 96 90 87 88 90 91 92 92 92 90 89 87 87 99 106 92 94
122 125 127 128 130 133 137 140 138 135 133 130 126 121 117 114 111 109 108 110 111 113 114 114 114 114 111 106 102 102 103 105 107 109 110 103 95 86 78 72 86 101 99
119 126 128 127 130 134 137 140 140 139 137 135 133 131 128 124 121 119 117 115 114 115 117 117 118 120 120 117 116 117 120 126 132 138 142 124 107 94 86 87 95 102 101
122 131 127 128 130 134 136 139 141 144 143 141 141 140 137 134 131 130 127 125 121 120 122 122 123 125 126 126 128 132 140 151 162 175 183 131 121 107 98 97 100 103 104
123 123 124 131 131 135 137 141 145 148 148 146 146 147 145 143 140 138 137 134 132 130 130 130 129 130 132 135 137 146 164 184 200 221 205 118 108 120 114 109 108 108 108
127 125 128 131 132 136 139 143 147 150 151 152 153 153 151 151 147 145 145 144 141 140 140 139 138 138 140 144 149 163 189 213 234 235 193 124 121 130 126 124 120 117 116
128 126 131 132 133 136 140 142 146 150 152 155 157 156 156 155 153 151 153 153 152 149 147 147 146 147 150 154 163 185 217 239 251 260 129 124 128 137 135 134 132 128 126
126 125 129 133 134 138 141 141 142 146 150 153 155 156 157 158 159 160 161 161 160 159 157 156 155 158 163 169 182 206 234 260 260 250 130 121 137 141 141 142 140 139 136
123 126 137 139 138 140 141 141 141 142 145 147 151 155 159 163 166 169 169 170 169 168 170 170 170 172 176 184 198 221 245 263 283 264 137 127 143 144 147 149 150 150 148
123 131 140 144 145 151 150 149 148 149 151 153 157 162 167 170 176 180 181 182 181 180 182 184 184 187 190 199 214 230 250 272 267 262 122 137 148 149 152 154 158 160 159
117 128 139 142 151 161 159 154 156 158 159 161 167 173 179 190 189 189 200 177 186 191 193 195 196 197 202 209 220 230 245 252 255 229 118 142 153 156 159 161 164 167 167
112 126 131 132 141 158 152 144 165 172 164 185 178 179 199 211 199 195 173 174 186 195 203 207 207 208 217 216 215 222 235 236 245 186 142 154 160 162 164 165 169 171 174
101 103 115 123 132 135 119 140 159 166 157 194 187 183 206 217 207 174 158 168 186 198 208 203 209 222 222 227 202 204 231 243 226 160 152 160 164 167 169 169 173 176 178
96 81 98 109 110 101 105 135 140 138 154 183 179 196 204 218 238 184 175 175 188 199 206 198 211 223 235 239 219 215 229 253 269 114 154 164 169 171 174 173 176 177 178
75 63 65 82 91 92 99 117 129 130 131 130 126 210 290 227 288 276 222 184 203 203 204 212 216 221 231 241 234 235 248 269 330 122 149 169 172 174 177 177 177 179 180
63 41 53 74 71 70 86 91 87 92 95 97 92 87 323 268 336 300 278 238 243 230 219 221 228 221 225 240 249 252 258 270 284 140 150 171 172 177 179 178 180 180 180
69 47 30 66 67 59 51 40 57 57 70 68 70 98 126 273 342 285 284 249 258 245 236 230 236 231 223 227 239 265 278 290 285 165 152 159 159 181 188 181 179 180 179
76 63 44 45 59 59 60 49 47 43 48 51 61 48 32 348 337 285 285 267 258 245 226 229 228 220 231 230 223 243 281 294 274 246 169 167 165 175 189 185 180 178 175
70 62 54 48 48 53 64 67 62 58 52 41 47 49 24 350 339 315 289 291 288 277 261 251 227 219 222 223 213 211 224 242 249 245 208 178 163 161 171 179 179 174 173
68 58 52 50 42 38 54 62 63 52 46 35 37 44 20 351 350 341 287 298 300 292 282 273 259 244 227 213 223 225 208 214 232 230 214 192 149 154 162 162 156 160 163
65 60 53 47 38 31 31 26 32 24 22 31 33 32 23 11 4 352 322 321 320 295 275 272 252 255 241 195 179 217 218 126 108 73 179 161 145 151 145 144 132 124 140
67 60 58 47 39 32 27 20 21 18 12 26 29 30 26 15 357 346 346 329 321 289 272 255 246 248 244 210 187 185 196 183 137 310 88 129 125 120 123 131 123 127 127
66 58 55 48 41 31 20 26 28 25 18 34 21 27 25 13 8 1 350 339 324 309 298 272 249 232 240 233 202 186 190 193 155 109 52 81 101 115 116 107 117 124 125
65 62 59 54 45 33 26 28 28 35 29 24 22 27 24 19 13 5 355 349 338 331 320 295 275 253 233 235 221 212 218 164 161 151 98 64 68 78 96 105 103 99 105
70 62 60 57 48 38 33 31 29 35 31 28 30 29 27 23 19 14 6 357 347 342 337 333 330 299 259 241 223 200 197 210 164 156 153 124 75 52 63 86 94 99 103
69 61 60 57 49 43 40 36 32 31 31 31 29 26 22 24 24 21 13 5 358 355 348 344 337 327 305 277 254 202 176 184 180 164 154 142 115 75 56 59 81 95 103